Date String (YYYY-MM-DD hh:mm:ss) UTC,Instrument flags,absolute air pressure of the measurement (hPa),sample flow rate (lpm),inlet stack bypass flow (lpm),air temperature of the measurement (°C),ambient temperature measured by the external sensor (°C),aerosol sample conditioner tube jacket temperature (°C),OPC LED temperature (°C),internal box temperature (°C),relative humidity of the measurement (%),span deviation,mass concentration of particles derived from Lorenz-Mie calculation of OPC scattering (μg/m³),mass concentration of particles derived from Lorenz-Mie calculation of OPC scattering (μg/m³),mass concentration of particles derived from Lorenz-Mie calculation of OPC scattering (μg/m³)
DateTimeUTC,F1_M11,P_M11,Q1_M11,Q2_M11,T1_M11,T2_M11,T3_M11,T4_M11,T5_M11,U1_M11,ZSPAN_M11,X0_M11,X2_M11,X1_M11
2023-09-28 15:00:00,SystemResetWarning,0828.5,5.01,000.00,028.7,025.1,000.0,037.1,030.3,13.3,0003.9,0012.23,0005.68,0005.04
2023-09-28 15:01:00,SystemResetWarning,0828.6,5.01,000.00,028.7,025.4,000.0,037.1,030.2,15.9,0004.0,0012.30,0005.73,0005.03
2023-09-28 15:02:00,SystemResetWarning,0828.5,4.99,000.00,028.6,025.7,000.0,037.1,030.2,21.4,0003.9,0012.36,0005.73,0005.03
2023-09-28 15:03:00,SystemResetWarning,0828.6,5.00,000.00,028.6,026.1,000.0,037.1,030.2,22.2,0003.7,0012.65,0005.75,0005.01
2023-09-28 15:04:00,SystemResetWarning,0828.5,5.00,000.00,028.6,026.4,000.0,037.2,030.3,22.6,0001.4,0012.50,0005.74,0005.00
2023-09-28 15:05:00,SystemResetWarning,0828.6,4.99,000.00,028.6,026.6,000.0,037.2,030.3,22.2,0000.7,0012.32,0005.70,0004.99
2023-09-28 15:06:00,SystemResetWarning,0828.6,4.99,000.00,028.6,026.9,000.0,037.2,030.4,22.3,0000.0,0012.26,0005.68,0004.98
2023-09-28 15:07:00,SystemResetWarning,0828.6,4.99,000.00,028.7,027.1,000.0,037.2,030.4,21.4,0000.0,0012.04,0005.64,0004.95
2023-09-28 15:08:00,SystemResetWarning,0828.6,5.00,000.00,028.7,027.2,000.0,037.2,030.5,19.6,0000.0,0011.67,0005.59,0004.93
2023-09-28 15:09:00,SystemResetWarning,0828.6,5.00,000.00,028.7,027.4,000.0,037.2,030.5,19.8,0000.0,0011.29,0005.57,0004.92
2023-09-28 15:10:00,SystemResetWarning,0828.6,5.01,000.00,028.8,027.5,000.0,037.2,030.6,20.9,0000.0,0010.26,0005.54,0004.90
2023-09-28 15:11:00,SystemResetWarning,0828.6,5.00,000.00,028.8,027.6,000.0,037.2,030.6,21.0,0000.0,0009.98,0005.53,0004.90
2023-09-28 15:12:00,SystemResetWarning,0828.6,4.99,000.00,028.8,027.1,000.0,037.2,030.6,20.5,0000.0,0009.92,0005.46,0004.88
2023-09-28 15:13:00,SystemResetWarning,0828.6,5.01,000.00,028.8,025.3,000.0,037.1,030.4,20.5,0000.0,0009.97,0005.40,0004.86
2023-09-28 15:14:00,SystemResetWarning,0828.6,5.01,000.00,028.7,024.8,000.0,037.1,030.3,20.1,0000.0,0010.22,0005.34,0004.84
2023-09-28 15:15:00,SystemResetWarning,0828.6,5.01,000.00,028.6,025.0,000.0,037.1,030.2,18.8,0000.0,0009.85,0005.29,0004.83
2023-09-28 15:16:00,SystemResetWarning,0828.6,4.99,000.00,028.6,025.3,000.0,037.1,030.1,18.5,0000.0,0009.69,0005.27,0004.82
2023-09-28 15:17:00,SystemResetWarning,0828.6,5.01,000.00,028.5,025.7,000.0,037.1,030.1,18.5,0000.0,0009.76,0005.28,0004.81
2023-09-28 15:18:00,SystemResetWarning,0828.6,5.00,000.00,028.5,026.0,000.0,037.1,030.1,18.9,0000.0,0009.87,0005.23,0004.80
2023-09-28 15:19:00,SystemResetWarning,0828.6,4.99,000.00,028.5,026.3,000.0,037.1,030.2,18.9,0000.0,0010.70,0005.24,0004.80
2023-09-28 15:20:00,SystemResetWarning,0828.6,4.99,000.00,028.5,026.6,000.0,037.1,030.2,18.4,0000.0,0011.17,0005.22,0004.78
2023-09-28 15:21:00,SystemResetWarning,0828.6,5.00,000.00,028.6,026.8,000.0,037.1,030.3,16.9,0000.0,0011.07,0005.22,0004.77
2023-09-28 15:22:00,SystemResetWarning,0828.6,5.00,000.00,028.6,027.0,000.0,037.1,030.4,16.2,0000.0,0011.03,0005.20,0004.76
2023-09-28 15:23:00,SystemResetWarning,0828.6,5.00,000.00,028.6,027.2,000.0,037.1,030.4,16.4,0000.0,0010.95,0005.21,0004.77
2023-09-28 15:24:00,SystemResetWarning,0828.6,5.01,000.00,028.7,027.3,000.0,037.1,030.5,16.7,0000.0,0010.84,0005.25,0004.79
2023-09-28 15:25:00,SystemResetWarning,0828.6,5.02,000.00,028.7,027.5,000.0,037.1,030.5,16.8,0000.0,0010.35,0005.26,0004.81
2023-09-28 15:26:00,SystemResetWarning,0828.6,5.00,000.00,028.7,027.6,000.0,037.1,030.5,17.1,0000.0,0010.29,0005.30,0004.82
2023-09-28 15:27:00,SystemResetWarning,0828.6,4.99,000.00,028.8,027.5,000.0,037.1,030.6,17.5,0000.0,0010.49,0005.34,0004.82
2023-09-28 15:28:00,SystemResetWarning,0828.6,4.98,000.00,028.8,026.1,000.0,037.1,030.5,17.7,0000.0,0010.61,0005.36,0004.83
2023-09-28 15:29:00,SystemResetWarning,0828.6,5.02,000.00,028.7,024.7,000.0,037.0,030.3,17.8,0000.0,0010.62,0005.43,0004.84
2023-09-28 15:30:00,SystemResetWarning,0828.6,5.01,000.00,028.6,024.8,000.0,037.0,030.2,17.3,0000.0,0010.61,0005.51,0004.84
2023-09-28 15:31:00,SystemResetWarning,0828.6,4.99,000.00,028.5,025.1,000.0,037.0,030.0,17.0,0000.0,0010.46,0005.57,0004.87
2023-09-28 15:32:00,SystemResetWarning,0828.6,4.99,000.00,028.5,025.5,000.0,037.0,030.0,16.8,0002.7,0011.59,0005.59,0004.89
2023-09-28 15:33:00,SystemResetWarning,0828.6,5.00,000.00,028.5,025.9,000.0,037.0,030.1,16.5,0003.8,0012.10,0005.61,0004.91
2023-09-28 15:34:00,SystemResetWarning,0828.6,5.00,000.00,028.5,026.2,000.0,037.0,030.1,16.6,0004.1,0012.24,0005.66,0004.92
2023-09-28 15:35:00,SystemResetWarning,0828.6,5.00,000.00,028.5,026.5,000.0,037.0,030.2,16.4,0004.2,0012.25,0005.66,0004.91
2023-09-28 15:36:00,SystemResetWarning,0828.6,5.00,000.00,028.5,026.7,000.0,037.0,030.2,16.3,0004.0,0012.28,0005.67,0004.90
2023-09-28 15:37:00,SystemResetWarning,0828.6,5.00,000.00,028.5,026.9,000.0,037.0,030.3,16.4,0004.2,0013.04,0005.74,0004.91
2023-09-28 15:38:00,SystemResetWarning,0828.6,5.00,000.00,028.6,027.1,000.0,037.0,030.3,16.9,0004.1,0014.28,0005.81,0004.92
2023-09-28 15:39:00,SystemResetWarning,0828.6,5.00,000.00,028.6,027.3,000.0,037.0,030.4,17.1,0003.9,0015.91,0005.91,0004.94
2023-09-28 15:40:00,SystemResetWarning,0828.6,5.00,000.00,028.6,027.4,000.0,037.1,030.4,17.0,0003.5,0016.63,0006.03,0004.96
2023-09-28 15:41:00,SystemResetWarning,0828.6,5.00,000.00,028.7,027.5,000.0,037.1,030.5,17.6,0002.9,0016.92,0006.11,0004.98
2023-09-28 15:42:00,SystemResetWarning,0828.6,5.01,000.00,028.7,027.6,000.0,037.1,030.5,17.1,0003.2,0018.70,0006.21,0005.00
2023-09-28 15:43:00,SystemResetWarning,0828.6,4.99,000.00,028.7,026.9,000.0,037.1,030.5,17.0,0003.4,0018.33,0006.33,0005.01
2023-09-28 15:44:00,SystemResetWarning,0828.6,5.00,000.00,028.7,025.3,000.0,037.0,030.3,17.3,0003.4,0018.60,0006.47,0005.04
2023-09-28 15:45:00,SystemResetWarning,0828.6,5.00,000.00,028.6,024.8,000.0,037.0,030.2,17.4,0003.3,0019.42,0006.56,0005.06
2023-09-28 15:46:00,SystemResetWarning,0828.6,5.01,000.00,028.5,025.1,000.0,037.0,030.1,16.9,0003.4,0020.34,0006.70,0005.08
2023-09-28 15:47:00,SystemResetWarning,0828.6,5.01,000.00,028.5,025.4,000.0,037.0,030.0,16.4,0003.4,0020.53,0006.79,0005.11
2023-09-28 15:48:00,SystemResetWarning,0828.6,5.00,000.00,028.4,025.8,000.0,037.0,030.1,16.6,0003.3,0020.71,0006.79,0005.13
2023-09-28 15:49:00,SystemResetWarning,0828.6,4.99,000.00,028.4,026.1,000.0,037.0,030.1,16.0,0003.5,0020.41,0006.79,0005.13
2023-09-28 15:50:00,SystemResetWarning,0828.6,5.00,000.00,028.5,026.4,000.0,037.0,030.2,15.7,0003.7,0020.29,0006.77,0005.15
2023-09-28 15:51:00,SystemResetWarning,0828.6,5.00,000.00,028.5,026.7,000.0,037.0,030.2,15.7,0004.0,0019.79,0006.64,0005.15
2023-09-28 15:52:00,SystemResetWarning,0828.6,5.00,000.00,028.5,026.9,000.0,037.0,030.3,15.6,0004.1,0019.09,0006.56,0005.15
2023-09-28 15:53:00,SystemResetWarning,0828.6,4.99,000.00,028.5,027.1,000.0,037.0,030.3,15.7,0001.9,0017.53,0006.51,0005.15
2023-09-28 15:54:00,SystemResetWarning,0828.6,5.00,000.00,028.6,027.3,000.0,037.0,030.4,15.8,0000.0,0017.96,0006.43,0005.15
2023-09-28 15:55:00,SystemResetWarning,0828.6,5.00,000.00,028.6,027.5,000.0,037.0,030.4,15.6,0000.0,0018.50,0006.37,0005.15
2023-09-28 15:56:00,SystemResetWarning,0828.7,4.99,000.00,028.7,027.3,000.0,037.0,030.5,15.2,0000.0,0018.57,0006.31,0005.15
2023-09-28 15:57:00,SystemResetWarning,0828.6,5.00,000.00,028.6,025.8,000.0,037.0,030.4,15.0,0000.0,0018.14,0006.24,0005.14
2023-09-28 15:58:00,SystemResetWarning,0828.6,5.00,000.00,028.6,024.9,000.0,036.9,030.2,15.3,0000.0,0018.43,0006.20,0005.14
2023-09-28 15:59:00,SystemResetWarning,0828.6,5.01,000.00,028.5,025.1,000.0,036.9,030.2,15.0,0000.0,0018.15,0006.21,0005.13
